Вернуться в каталог

STARLINK-11353

АктивенСвязьVLEO
NORAD 61941·PAYLOAD·🇺🇸 United States

Запущен Nov 14, 2024 с Vandenberg Space Force Base

Loading…

Ближайшие Пролёты (ближайшие 24 часа)

TLE

СвежийSource: CelesTrak SupGP

Эпоха: Sep 15, 2026, 01:59 UTC

1 61941C 24209C   26258.08312500 -.00006881  00000+0 -56672-4 0  2582
2 61941  53.1568 157.2835 0001267  83.9441 106.1324 15.69716031    14

Отслеживайте STARLINK-11353 в реальном времени с AllMySat

Download on the App Store